Vertical_Velocity
-0 1 1 2 2 1 -1 -1 -1 -0 1 2 3 -1 -1 3 1 3 5 2 3 2 4 4 3 2 3 -2 0 -10 -1 -0 -1 3 0 1 -0 1 1 1 1 2 -2
1 1 2 1 0 -1 -2 -3 -1 0 2 -0 3 2 3 1 5 6 4 5 5 3 3 5 5 2 -1 -1 -0 5 -1 -10 1 -7 -1 1 -4 -2 -1 -0 -4 -4 -2
3 3 2 1 -1 -4 -2 1 -1 -3 -0 1 -1 2 2 5 1 1 2 3 3 2 -0 -2 -1 -6 -3 0 -8 9 -10 4 0 -1 1 0 -3 -4 -7 -2 -3 -5 -4
-1 -2 -1 -2 -3 -6 -0 -1 2 1 1 3 1 1 -1 5 8 7 5 3 1 4 -3 3 -0 -4 -7 -4 -1 3 -3 -4 7 0 2 -3 -2 -4 0 -2 -6 -3 -6
1 0 -1 2 1 -4 -0 -1 -1 2 0 4 7 10 7 4 2 3 -0 -1 -3 -2 -1 0 1 8 -11 8 -2 -3 -4 4 -2 0 -0 1 -0 1 0 -3 -4 -1 -6
-1 1 -0 -1 -1 -0 -1 -3 3 5 3 7 2 3 13 9 -1 -5 1 2 2 -3 -2 3 -5 -7 3 -3 -4 2 0 5 -2 3 0 2 -0 -2 -2 -0 -1 1 -9
1 -4 -6 -0 -2 -3 -1 4 -3 -5 4 -7 -3 -1 4 3 3 1 -2 1 -1 -1 -11 -3 -4 -4 2 4 4 -0 -2 5 1 -1 -2 -3 -3 3 2 -4 1 3 -2
-5 -1 -0 -3 -2 -1 2 -1 6 -6 3 5 5 -2 0 2 0 2 3 -9 -4 -3 -0 6 5 1 4 -3 -2 1 2 1 -3 -5 1 -1 -2 -1 2 -0 -1 -4 -10
-2 -2 -3 -1 -0 -1 1 -1 -7 -2 -5 -5 -2 1 3 2 -2 4 -1 -0 -1 4 2 -1 1 3 1 2 -1 -4 -5 -2 -1 -1 1 3 3 3 5 -2 -2 -2 -7
-2 -3 -2 1 -1 0 1 2 3 1 -1 2 2 3 -1 -0 7 -1 -4 1 3 -2 -1 1 2 2 -2 -3 1 -2 -3 -0 0 2 3 5 1 -1 -0 1 1 -2 5
-0 -1 -2 -2 -1 1 1 3 2 2 1 -4 -1 5 4 -4 -7 -3 3 0 1 0 -1 0 -1 -3 -3 -1 1 1 -0 -3 -1 -3 -3 -3 -2 -2 -2 1 2 3 1
-2 -3 -1 2 1 2 3 -0 -0 -0 0 1 3 1 -1 -1 -1 -1 -1 -2 -1 -0 -2 -1 -1 -0 -0 -1 -2 -2 -2 -2 -2 -3 -3 -2 -3 -3 0 1 1 5 4
-3 -2 -1 -1 -1 1 2 -0 0 1 0 -1 -2 -2 -1 0 1 2 1 -2 0 2 1 0 -2 -1 -0 -1 0 -1 -2 -3 -1 -2 -2 -2 -1 -0 0 1 3 -2 0
-1 -1 -1 1 0 0 -0 -1 -1 -1 -1 0 1 1 0 -1 -2 -1 1 1 0 -2 -1 -1 -1 -1 -1 -1 -1 -1 -1 0 -1 -1 -1 0 1 0 1 -1 -4 -5 -8
-1 -2 -1 2 1 1 0 -1 -1 -1 -2 -1 -0 0 1 2 1 -1 -2 -3 -2 -1 -1 -2 -1 -2 -1 0 1 -2 0 1 0 -0 -1 -2 -1 -1 -1 0 0 -1 -3
-1 -1 -1 -1 -1 -1 -2 -2 -1 -1 -1 -1 -1 0 1 -0 -1 -1 -0 -1 -1 -0 -1 -2 -0 -1 -1 -2 -2 0 1 0 -1 -1 -1 -2 -2 -2 -4 -1 1 1 -1
1 -0 -1 -2 -2 -1 -1 -0 -0 -1 -2 -1 0 1 -0 -2 -2 -1 -1 -1 -2 -1 0 -0 -1 0 -1 0 -1 -0 -2 0 0 -1 -0 0 0 -2 -5 -2 -3 -2 -4
-0 -0 -0 -0 -1 -1 -1 -1 -0 0 1 0 -1 -2 -1 0 0 -1 -1 -0 -2 -1 -0 -1 0 -1 -1 -1 -1 -1 1 -0 -1 -1 0 -1 -1 -1 -3 -0 0 0 -1
0 0 -1 -1 -0 1 1 0 1 0 -1 -0 -1 -1 -1 0 -0 -2 -1 -1 -0 0 -1 -1 -2 0 -1 1 -0 0 -0 -1 -2 -2 -1 -0 -2 -0 -1 3 1 3 4
-1 -1 -0 1 0 -0 -1 -1 -1 -0 -0 -0 -1 -1 -2 -1 -1 -0 -0 -1 -1 -1 -0 0 0 -1 -1 -1 1 0 -0 0 -0 -0 -1 -1 -1 1 -0 -0 -0 -2 0
-0 0 -0 -1 -2 -2 -1 -0 -0 -1 -1 -0 -0 -1 -2 -2 -0 -0 -1 -1 -1 -0 -1 -1 -1 -0 0 -1 1 1 -0 -1 -1 -1 -1 -1 -1 -3 2 1 -2 -1 3
0 -0 -1 -1 -1 -1 -1 -1 -1 -0 -0 -1 -1 -1 -1 -1 -1 -1 -1 -0 -0 -1 -1 -2 -0 -1 -0 -0 -1 -1 -1 -1 0 1 -1 -2 -0 0 -2 -2 -2 6 1
0 -1 -1 -0 -0 -1 -1 -1 -1 -0 -0 -1 -2 -2 -1 1 1 1 0 -1 -2 1 0 -1 -2 -1 -1 -0 1 1 -1 0 0 0 -0 -1 -2 -2 -3 0 4 0 1
1 0 -0 -0 -2 -2 -1 -1 -1 -1 -0 -1 -1 -0 -1 -1 -0 -0 -1 0 -1 -0 -1 1 1 -2 -2 0 1 2 2 0 0 1 2 -1 -5 1 4 4 1 2 2
1 -1 -0 -1 -1 -1 -1 -1 -0 0 -0 -1 -0 -1 0 1 -1 -1 -1 -1 -2 -0 2 -0 1 0 0 1 1 2 2 2 1 1 3 2 -0 4 2 2 1 -0 1
0 -0 -1 -2 -1 -1 -1 -1 -1 -1 -0 1 1 0 0 -1 -1 -0 0 0 -1 0 -1 1 1 -0 -0 -1 -0 -0 -1 0 -0 0 2 6 2 -2 1 2 -1 6 -0
Height
1448 1447 1448 1449 1449 1449 1450 1450 1451 1451 1451 1452 1453 1454 1455 1458 1461 1466 1469 1473 1477 1481 1484 1486 1488 1491 1492 1495 1495 1498 1498 1497 1498 1495 1497 1499 1497 1495 1492 1489 1486 1482 1478
1445 1444 1444 1444 1444 1445 1444 1443 1443 1443 1444 1445 1447 1449 1450 1453 1457 1460 1465 1469 1473 1476 1480 1482 1485 1489 1491 1493 1494 1493 1487 1493 1496 1492 1492 1488 1488 1487 1485 1481 1479 1476 1471
1442 1441 1440 1439 1439 1439 1438 1437 1436 1437 1439 1440 1442 1444 1447 1449 1452 1456 1461 1465 1469 1474 1478 1481 1483 1487 1486 1488 1483 1489 1485 1490 1486 1486 1484 1481 1480 1478 1476 1473 1469 1467 1464
1439 1438 1437 1436 1434 1434 1435 1434 1433 1434 1435 1438 1439 1441 1444 1448 1451 1455 1460 1465 1470 1474 1476 1479 1479 1481 1482 1485 1484 1483 1484 1486 1483 1481 1478 1474 1473 1472 1469 1465 1460 1459 1455
1437 1436 1435 1435 1434 1434 1435 1433 1433 1433 1434 1436 1438 1440 1443 1447 1453 1458 1462 1466 1470 1473 1476 1476 1477 1477 1478 1480 1480 1479 1480 1479 1476 1477 1473 1470 1468 1466 1463 1459 1455 1452 1449
1437 1435 1436 1436 1435 1435 1435 1435 1435 1435 1436 1437 1438 1443 1448 1449 1455 1461 1465 1466 1469 1470 1473 1475 1475 1477 1478 1475 1475 1475 1476 1472 1471 1471 1468 1465 1463 1461 1457 1454 1451 1447 1442
1439 1438 1439 1439 1438 1438 1437 1438 1437 1437 1439 1439 1443 1449 1453 1456 1457 1461 1464 1466 1468 1469 1473 1474 1474 1475 1475 1472 1472 1471 1470 1468 1465 1465 1463 1461 1458 1456 1452 1449 1446 1443 1439
1442 1442 1441 1441 1441 1441 1441 1441 1440 1442 1445 1447 1447 1449 1454 1457 1459 1462 1463 1465 1469 1472 1473 1473 1471 1471 1469 1468 1467 1465 1464 1462 1461 1459 1458 1456 1453 1451 1448 1444 1440 1437 1432
1444 1444 1444 1445 1445 1446 1447 1447 1448 1450 1452 1454 1456 1459 1460 1460 1461 1462 1464 1467 1468 1469 1469 1468 1468 1466 1464 1463 1462 1459 1458 1457 1455 1454 1452 1450 1448 1446 1443 1438 1435 1431 1425
1446 1447 1448 1450 1451 1452 1453 1454 1455 1456 1458 1459 1460 1461 1461 1462 1464 1465 1465 1466 1466 1466 1465 1465 1463 1461 1459 1459 1458 1455 1453 1452 1451 1450 1449 1447 1444 1441 1438 1434 1430 1426 1421
1450 1451 1453 1455 1457 1458 1458 1459 1460 1461 1462 1462 1463 1463 1464 1464 1464 1465 1465 1465 1464 1463 1462 1461 1459 1457 1455 1454 1453 1451 1450 1450 1448 1446 1444 1441 1438 1436 1434 1431 1427 1422 1416
1454 1455 1458 1460 1461 1462 1462 1463 1464 1464 1465 1465 1465 1465 1465 1466 1466 1466 1464 1463 1461 1460 1459 1457 1455 1453 1452 1451 1450 1449 1447 1446 1445 1443 1440 1438 1435 1433 1431 1426 1422 1417 1411
1458 1460 1462 1463 1464 1465 1466 1466 1466 1467 1468 1467 1467 1467 1467 1466 1465 1464 1463 1461 1459 1457 1456 1454 1453 1451 1449 1448 1447 1445 1444 1443 1440 1438 1436 1434 1431 1428 1425 1420 1415 1410 1404
1462 1463 1465 1467 1467 1467 1468 1468 1468 1469 1468 1468 1467 1467 1466 1465 1464 1462 1460 1459 1457 1455 1454 1452 1450 1449 1447 1446 1445 1443 1441 1439 1437 1434 1432 1430 1426 1422 1419 1414 1408 1402 1396
1465 1466 1468 1469 1469 1469 1469 1470 1470 1470 1470 1468 1467 1466 1465 1464 1462 1460 1458 1456 1454 1453 1451 1450 1448 1447 1445 1444 1442 1441 1439 1437 1434 1431 1429 1426 1422 1417 1413 1409 1403 1397 1391
1467 1468 1469 1470 1470 1471 1471 1471 1470 1469 1468 1467 1466 1464 1463 1462 1460 1458 1456 1454 1453 1451 1449 1447 1445 1444 1442 1441 1440 1438 1436 1434 1431 1428 1425 1422 1418 1413 1407 1402 1398 1392 1385
1468 1469 1469 1470 1471 1471 1470 1470 1470 1469 1467 1465 1464 1463 1462 1460 1458 1456 1454 1452 1450 1449 1447 1445 1443 1442 1440 1439 1437 1434 1432 1430 1427 1424 1421 1418 1413 1408 1403 1397 1391 1385 1379
1468 1469 1470 1470 1471 1471 1471 1470 1469 1468 1466 1465 1463 1461 1459 1457 1455 1453 1451 1449 1448 1446 1445 1444 1442 1440 1438 1436 1434 1431 1428 1426 1423 1420 1417 1413 1408 1404 1398 1392 1387 1381 1374
1468 1469 1470 1470 1470 1470 1470 1469 1468 1466 1465 1463 1460 1459 1457 1455 1452 1450 1448 1447 1445 1444 1443 1442 1440 1438 1436 1433 1430 1427 1424 1422 1418 1415 1413 1409 1404 1399 1393 1387 1382 1377 1371
1467 1468 1469 1469 1469 1469 1468 1467 1466 1465 1463 1460 1458 1457 1455 1453 1450 1448 1446 1445 1443 1442 1441 1440 1438 1436 1433 1431 1427 1424 1421 1418 1414 1411 1408 1404 1399 1394 1388 1381 1376 1370 1363
1465 1466 1467 1468 1468 1467 1466 1465 1464 1462 1460 1458 1456 1454 1452 1450 1448 1446 1444 1443 1442 1440 1439 1438 1436 1433 1430 1427 1424 1420 1416 1413 1409 1405 1402 1398 1394 1388 1383 1377 1371 1364 1359
1463 1464 1465 1466 1465 1465 1464 1463 1462 1460 1458 1456 1454 1452 1450 1448 1446 1444 1442 1441 1440 1438 1436 1435 1433 1430 1427 1423 1419 1415 1411 1408 1404 1401 1397 1393 1389 1383 1377 1371 1365 1360 1355
1461 1462 1463 1463 1463 1462 1461 1460 1459 1457 1455 1453 1451 1449 1448 1445 1443 1442 1440 1438 1437 1435 1433 1432 1429 1427 1423 1420 1416 1411 1407 1404 1400 1396 1392 1388 1384 1378 1372 1366 1362 1355 1349
1458 1459 1460 1460 1460 1459 1458 1457 1456 1454 1452 1450 1448 1446 1444 1442 1441 1439 1437 1435 1433 1432 1430 1428 1426 1423 1419 1415 1411 1408 1404 1400 1396 1392 1388 1383 1377 1372 1368 1363 1356 1349 1343
1455 1456 1457 1457 1457 1456 1455 1454 1452 1450 1449 1446 1444 1442 1440 1438 1437 1435 1433 1431 1429 1427 1426 1424 1422 1418 1415 1411 1407 1403 1399 1396 1392 1388 1383 1379 1374 1368 1363 1357 1351 1343 1338
1452 1453 1454 1454 1453 1453 1452 1450 1449 1447 1445 1442 1440 1438 1436 1434 1433 1430 1428 1426 1424 1422 1421 1419 1417 1414 1410 1406 1402 1398 1394 1391 1387 1384 1380 1375 1369 1363 1357 1351 1345 1339 1332